Flag for Germany Weather past 2 weeks in Worms, Rhineland-Palatinate, Germany

Now
27 °F

Overcast.


Feels Like: 16 °F
Forecast: 20 / 36 °F
Wind: 13 mph from North

Location: Baden Wurttemberg - Neuostheim

Current Time: Dec 28, 2014 at 9:12:55 AM

Latest Report: Dec 28, 2014 at 8:20 AM


Visibility: N/A

Pressure: 29.92 "Hg

Humidity: 80%

Dew point: 21 °F

Location of WormsLocation

Historic Weather in Worms — Graph

°F

Worms temperature yesterday

Maximum temperature yesterday: 37 °F (at 3:20 PM)
Minimum temperature yesterday: 32 °F (at 7:20 AM)
Average temperature yesterday: 35 °F

Past Weeks' High & Low Weather Summary

 TemperatureHumidityPressure
High55 °F (Dec 18, 6:20 PM)100% (Dec 14, 7:50 AM)30.51 "Hg (Dec 14, 7:50 AM)
Low28 °F (Dec 28, 7:50 AM)58% (Dec 15, 1:20 PM)29.42 "Hg (Dec 27, 2:20 PM)
Average45 °F83%30.04 "Hg
* Reported Dec 13 7:20 AM — Dec 28 7:50 AM, Worms, Weather by CustomWeather, © 2014

Note: Actual official high and low records may vary slightly from our data, if they occured in-between our weather recording intervals... More about our weather records

Advertising

Worms weather history for previous 24 hours

 ConditionsComfort  
Time TempWeatherWind HumidityBarometerVisibility
7:50 AM
Dec 28
28 °FOvercast.9 mph80%29.89 "HgN/A
7:50 PM
Dec 27
37 °FPassing clouds.6 mph93%29.42 "HgN/A
7:20 PM37 °FLight snow. Passing clouds.6 mph93%29.42 "HgN/A
6:50 PM37 °FLight snow. Passing clouds.5 mph93%29.42 "HgN/A
6:20 PM37 °FPassing clouds.6 mph93%29.42 "HgN/A
5:50 PM37 °FLight rain. Passing clouds.6 mph93%29.42 "HgN/A
5:20 PM37 °FLight rain. Passing clouds.5 mph93%29.42 "HgN/A
4:50 PM37 °FLight rain. Partly cloudy.5 mph93%29.42 "HgN/A
4:20 PM37 °FPartly sunny.6 mph93%29.42 "Hg6 mi
3:50 PM37 °FMore clouds than sun.6 mph93%29.42 "HgN/A
3:20 PM37 °FMostly cloudy.7 mph93%29.42 "HgN/A
2:50 PM36 °FMore clouds than sun.7 mph100%29.42 "HgN/A
2:20 PM36 °FMore clouds than sun.8 mph93%29.42 "HgN/A
1:50 PM36 °FPartly sunny.8 mph93%29.45 "HgN/A
1:20 PM34 °FLight snow. Low clouds.9 mph100%29.45 "Hg4 mi
12:50 PM34 °FLight snow. More clouds than sun.6 mph93%29.45 "Hg4 mi
12:20 PM34 °FLight rain. Fog.10 mph100%29.47 "Hg2 mi
11:50 AM34 °FLight rain. Fog.10 mph93%29.47 "Hg2 mi
11:20 AM34 °FLight snow. Fog.12 mph93%29.47 "Hg1 mi
10:50 AM34 °FLight snow. Fog.14 mph93%29.50 "Hg1 mi
10:20 AM34 °FLight snow. Fog.13 mph93%29.53 "Hg1 mi
9:20 AM34 °FLight snow. Fog.15 mph100%29.56 "Hg1 mi
Weather by CustomWeather, © 2014

See weather overviewHow to use our weather pages